Weather History for Paris, TX

Change the Weather History Date:

Sunday, November 25, 2012

  Actual Average Record
Temperature  
Mean Temperature 52 °F -  
Max Temperature 71 °F 59 °F 73 °F (1998)
Min Temperature 33 °F 40 °F 30 °F (2004)
Degree Days  
Heating Degree Days 13    
Growing Degree Days 2 (Base 50)    
Moisture  
Dew Point 37 °F    
Average Humidity 58    
Maximum Humidity 76    
Minimum Humidity 32    
Precipitation  
Precipitation 0.00 in - - ()
Sea Level Pressure  
Sea Level Pressure 29.99 in    
Wind  
Wind Speed 10 mph (SSE)    
Max Wind Speed 22 mph    
Max Gust Speed 26 mph    
Visibility 10 miles    
Events      
Averages and records for this station are not official NWS values.
T = Trace of Precipitation, MM = Missing Value Source: NWS Daily Summary

Daily Weather History Graph

Daily Weather History Graph

Search for Another Location

Airport:

Trip Planner

Search our weather history database for the weather conditions in past years. The results will help you decide how hot, cold, wet, or windy it might be!

Date:

Astronomy

Nov. 25, 2012 Rise Set
Actual Time 7:03 AM CST 5:14 PM CST
Civil Twilight 6:36 AM CST 5:41 PM CST
Nautical Twilight 6:05 AM CST 6:11 PM CST
Astronomical Twilight 5:35 AM CST 6:41 PM CST
Moon 3:27 PM CST (11/25) 4:23 AM CST (11/25)
Length of Visible Light 11h 05m
Length of Day
10h 11m
Waxing Gibbous, 93% of the Moon is Illuminated
Nov 25
Waxing Gibbous
Nov 28
Full
Dec 6
Last Quarter
Dec 13
New
Dec 19
First Quarter

Hourly Weather History & Observations

Time (CST) Temp. Windchill Dew Point Humidity Pressure Visibility Wind Dir Wind Speed Gust Speed Precip Events Conditions
12:15 AM 37.4 °F 32.8 °F 24.8 °F 60% 30.15 in 10.0 mi East 5.8 mph - N/A   Clear
12:35 AM 37.4 °F 31.4 °F 24.8 °F 60% 30.14 in 10.0 mi ESE 8.1 mph - N/A   Clear
12:55 AM 37.4 °F 30.8 °F 26.6 °F 65% 30.13 in 10.0 mi ESE 9.2 mph - N/A   Clear
1:15 AM 35.6 °F 29.9 °F 26.6 °F 70% 30.12 in 10.0 mi ESE 6.9 mph - N/A   Clear
1:35 AM 35.6 °F 29.2 °F 26.6 °F 70% 30.11 in 10.0 mi ESE 8.1 mph - N/A   Clear
1:55 AM 35.6 °F 30.7 °F 26.6 °F 70% 30.11 in 10.0 mi SSE 5.8 mph - N/A   Clear
2:15 AM 35.6 °F 29.9 °F 26.6 °F 70% 30.10 in 10.0 mi SSE 6.9 mph - N/A   Clear
2:35 AM 35.6 °F 30.7 °F 26.6 °F 70% 30.10 in 10.0 mi SSE 5.8 mph - N/A   Clear
2:55 AM 37.4 °F 32.1 °F 26.6 °F 65% 30.09 in 10.0 mi SSE 6.9 mph - N/A   Clear
3:15 AM 35.6 °F 29.9 °F 26.6 °F 70% 30.09 in 10.0 mi SE 6.9 mph - N/A   Clear
3:35 AM 33.8 °F 27.0 °F 26.6 °F 75% 30.08 in 10.0 mi SSE 8.1 mph - N/A   Clear
3:55 AM 35.6 °F 29.9 °F 28.4 °F 75% 30.07 in 10.0 mi SE 6.9 mph - N/A   Clear
4:15 AM 35.6 °F 29.9 °F 28.4 °F 75% 30.07 in 10.0 mi SSE 6.9 mph - N/A   Clear
4:35 AM 35.6 °F 29.9 °F 28.4 °F 75% 30.07 in 10.0 mi SSE 6.9 mph - N/A   Clear
4:55 AM 35.6 °F 29.9 °F 28.4 °F 75% 30.06 in 10.0 mi SSE 6.9 mph - N/A   Clear
5:15 AM 35.6 °F 29.2 °F 28.4 °F 75% 30.06 in 10.0 mi SSE 8.1 mph - N/A   Clear
5:35 AM 35.6 °F 29.9 °F 28.4 °F 75% 30.06 in 10.0 mi SSE 6.9 mph - N/A   Clear
5:55 AM 35.6 °F 28.6 °F 28.4 °F 75% 30.06 in 10.0 mi SSE 9.2 mph - N/A   Clear
6:15 AM 35.6 °F 28.6 °F 28.4 °F 75% 30.05 in 10.0 mi SSE 9.2 mph - N/A   Clear
6:35 AM 37.4 °F 31.4 °F 30.2 °F 75% 30.05 in 10.0 mi SSE 8.1 mph - N/A   Clear
6:55 AM 37.4 °F 31.4 °F 30.2 °F 75% 30.06 in 10.0 mi SSE 8.1 mph - N/A   Clear
7:15 AM 37.4 °F 30.3 °F 30.2 °F 75% 30.06 in 10.0 mi SSE 10.4 mph - N/A   Clear
7:35 AM 37.4 °F 31.4 °F 30.2 °F 75% 30.06 in 10.0 mi SSE 8.1 mph - N/A   Clear
7:55 AM 39.2 °F 33.6 °F 30.2 °F 70% 30.06 in 10.0 mi SSE 8.1 mph - N/A   Clear
8:15 AM 42.8 °F 38.0 °F 32.0 °F 66% 30.06 in 10.0 mi SSE 8.1 mph - N/A   Clear
8:35 AM 44.6 °F 39.7 °F 32.0 °F 61% 30.06 in 10.0 mi SSE 9.2 mph - N/A   Clear
8:55 AM 46.4 °F 41.1 °F 33.8 °F 62% 30.06 in 10.0 mi South 11.5 mph - N/A   Clear
9:15 AM 48.2 °F - 33.8 °F 58% 30.07 in 10.0 mi South 13.8 mph 18.4 mph N/A   Clear
9:35 AM 51.8 °F - 33.8 °F 50% 30.07 in 10.0 mi South 9.2 mph - N/A   Clear
9:55 AM 55.4 °F - 33.8 °F 44% 30.07 in 10.0 mi SSW 12.7 mph - N/A   Clear
10:15 AM 57.2 °F - 33.8 °F 41% 30.06 in 10.0 mi South 11.5 mph - N/A   Clear
10:35 AM 60.8 °F - 33.8 °F 36% 30.05 in 10.0 mi South 12.7 mph 18.4 mph N/A   Clear
10:55 AM 62.6 °F - 33.8 °F 34% 30.04 in 10.0 mi South 13.8 mph - N/A   Clear
11:15 AM 64.4 °F - 33.8 °F 32% 30.03 in 10.0 mi South 17.3 mph 20.7 mph N/A   Clear
11:35 AM 66.2 °F - 35.6 °F 32% 30.02 in 10.0 mi South 16.1 mph - N/A   Clear
11:55 AM 66.2 °F - 37.4 °F 35% 30.00 in 10.0 mi SSW 17.3 mph 20.7 mph N/A   Clear
12:15 PM 66.2 °F - 37.4 °F 35% 29.99 in 10.0 mi South 21.9 mph 26.5 mph N/A   Clear
12:35 PM 68.0 °F - 37.4 °F 33% 29.97 in 10.0 mi SSW 19.6 mph 24.2 mph N/A   Clear
12:55 PM 68.0 °F - 39.2 °F 35% 29.96 in 10.0 mi South 16.1 mph 21.9 mph N/A   Clear
1:15 PM 69.8 °F - 39.2 °F 33% 29.95 in 10.0 mi South 17.3 mph 24.2 mph N/A   Clear
1:35 PM 69.8 °F - 39.2 °F 33% 29.94 in 10.0 mi South 17.3 mph 23.0 mph N/A   Clear
1:55 PM 69.8 °F - 41.0 °F 35% 29.93 in 10.0 mi South 17.3 mph - N/A   Clear
2:15 PM 71.6 °F - 41.0 °F 33% 29.92 in 10.0 mi South 19.6 mph 23.0 mph N/A   Clear
2:35 PM 71.6 °F - 42.8 °F 35% 29.91 in 10.0 mi South 17.3 mph 23.0 mph N/A   Clear
2:55 PM 71.6 °F - 42.8 °F 35% 29.91 in 10.0 mi South 18.4 mph - N/A   Clear
3:15 PM 71.6 °F - 42.8 °F 35% 29.90 in 10.0 mi South 17.3 mph 21.9 mph N/A   Clear
3:35 PM 71.6 °F - 42.8 °F 35% 29.89 in 10.0 mi South 16.1 mph - N/A   Clear
3:55 PM 71.6 °F - 44.6 °F 38% 29.89 in 10.0 mi South 16.1 mph 23.0 mph N/A   Clear
4:15 PM 69.8 °F - 44.6 °F 40% 29.89 in 10.0 mi South 15.0 mph - N/A   Clear
4:35 PM 69.8 °F - 44.6 °F 40% 29.90 in 10.0 mi South 13.8 mph 19.6 mph N/A   Clear
4:55 PM 68.0 °F - 44.6 °F 43% 29.90 in 10.0 mi South 11.5 mph - N/A   Clear
5:15 PM 66.2 °F - 46.4 °F 49% 29.89 in 10.0 mi South 12.7 mph 19.6 mph N/A   Clear
5:35 PM 66.2 °F - 46.4 °F 49% 29.90 in 10.0 mi South 11.5 mph - N/A   Clear
5:55 PM 64.4 °F - 46.4 °F 52% 29.90 in 10.0 mi South 12.7 mph - N/A   Clear
6:15 PM 62.6 °F - 46.4 °F 55% 29.90 in 10.0 mi SSE 8.1 mph - N/A   Clear
6:35 PM 62.6 °F - 46.4 °F 55% 29.91 in 10.0 mi SSE 11.5 mph - N/A   Clear
6:55 PM 62.6 °F - 46.4 °F 55% 29.91 in 10.0 mi SSE 11.5 mph - N/A   Clear
7:15 PM 62.6 °F - 46.4 °F 55% 29.91 in 10.0 mi South 12.7 mph - N/A   Clear
7:35 PM 62.6 °F - 46.4 °F 55% 29.91 in 10.0 mi SSE 11.5 mph - N/A   Clear
7:55 PM 59.0 °F - 44.6 °F 59% 29.91 in 10.0 mi SE 9.2 mph - N/A   Clear
8:15 PM 57.2 °F - 46.4 °F 67% 29.91 in 10.0 mi SE 10.4 mph - N/A   Clear
8:35 PM 57.2 °F - 44.6 °F 63% 29.91 in 10.0 mi SE 11.5 mph - N/A   Clear
8:55 PM 57.2 °F - 44.6 °F 63% 29.91 in 10.0 mi SE 9.2 mph - N/A   Clear
9:15 PM 55.4 °F - 44.6 °F 67% 29.92 in 10.0 mi ESE 9.2 mph - N/A   Clear
9:35 PM 53.6 °F - 44.6 °F 72% 29.92 in 10.0 mi SE 8.1 mph - N/A   Clear
9:55 PM 51.8 °F - 44.6 °F 76% 29.92 in 10.0 mi SE 9.2 mph - N/A   Clear
10:15 PM 51.8 °F - 44.6 °F 76% 29.92 in 10.0 mi ESE 8.1 mph - N/A   Clear
10:35 PM 51.8 °F - 44.6 °F 76% 29.92 in 10.0 mi ESE 10.4 mph - N/A   Clear
10:55 PM 51.8 °F - 44.6 °F 76% 29.92 in 10.0 mi SE 9.2 mph - N/A   Clear
11:15 PM 51.8 °F - 44.6 °F 76% 29.93 in 10.0 mi ESE 9.2 mph - N/A   Clear
11:35 PM 51.8 °F - 44.6 °F 76% 29.92 in 10.0 mi ESE 10.4 mph - N/A   Clear
11:55 PM 51.8 °F - 44.6 °F 76% 29.92 in 10.0 mi SE 9.2 mph - N/A   Clear